Theta_e
352 352 351 349 346 347 350 348 346 347 348 345 343 343 340 339 333 332 330 333 333 336 337 336 343 347 348 350 346 347 348 347 351 350 350 348 351 347 342 343 341 341 340 340 341 341 342 342 342 343 343 343 343 343 342 342 343 343 342 343 344 344 344 344 344 344 343 343 343 343 343 343 343 344
355 352 351 349 346 349 350 347 345 348 349 345 344 342 343 342 337 335 332 333 337 335 339 337 339 351 351 348 348 347 347 350 348 348 347 346 346 340 341 342 341 341 340 339 338 340 340 340 340 339 338 338 338 340 341 341 341 342 342 342 344 344 344 344 344 343 343 343 343 343 343 343 343 343
355 353 349 351 347 350 349 348 345 347 347 345 345 343 344 343 342 339 336 331 337 340 337 339 340 345 348 344 344 346 347 349 346 347 348 350 346 340 347 341 341 340 338 337 337 336 334 334 335 335 335 336 338 339 341 341 340 341 340 341 342 342 343 343 342 342 342 342 342 343 342 342 342 342
355 354 351 351 349 349 349 348 347 347 348 347 344 344 344 344 344 342 338 335 335 341 337 339 344 342 346 348 345 346 347 352 349 349 348 348 349 349 346 344 340 339 337 336 336 333 331 333 335 336 336 337 338 339 340 339 338 338 339 339 339 340 340 339 339 339 340 340 340 340 340 340 341 342
356 355 353 352 351 351 349 348 347 346 348 347 345 346 344 342 344 342 341 337 337 341 344 341 340 343 345 344 348 346 346 349 351 348 349 350 348 346 346 352 341 339 336 335 333 333 332 333 334 334 336 337 337 338 338 338 337 337 336 335 334 335 336 335 334 335 336 337 337 338 338 339 339 339
356 356 354 353 353 352 350 348 347 347 345 346 344 344 344 342 342 345 342 339 338 338 343 343 343 341 344 341 347 346 344 345 348 348 348 349 349 346 347 346 350 338 338 333 331 332 331 332 332 333 334 334 335 335 336 334 332 332 332 330 330 331 330 330 331 332 333 334 335 336 336 337 337 338
357 356 355 353 353 352 350 348 348 348 347 347 346 344 345 344 343 346 345 342 339 339 339 344 342 341 343 341 343 346 346 347 347 347 347 345 345 346 346 345 345 338 337 332 332 331 331 331 332 332 333 333 332 331 329 327 327 327 326 326 327 328 328 328 329 330 331 331 333 334 334 334 335 336
357 356 355 353 352 353 351 349 347 347 347 347 347 346 347 346 345 347 348 345 342 341 338 342 341 342 343 343 345 346 347 344 346 346 345 346 345 345 346 347 345 341 334 334 333 332 331 330 330 328 328 328 327 325 324 324 326 325 325 325 325 324 325 324 325 327 327 327 329 330 331 333 333 331
360 357 355 354 353 353 351 349 347 347 348 347 347 346 347 347 346 346 347 347 344 341 340 341 345 344 343 344 345 346 343 344 345 347 346 344 346 348 347 345 343 341 331 334 332 331 331 330 329 328 329 329 327 326 326 325 325 324 324 323 323 324 324 324 322 323 324 324 325 325 326 327 328 328
361 359 357 356 355 353 352 350 348 349 349 349 347 347 346 346 347 346 347 348 346 343 342 343 341 345 342 342 344 346 345 341 340 342 345 347 346 347 345 344 344 347 347 346 343 334 332 330 328 330 330 329 327 327 326 325 324 323 322 318 317 320 320 321 322 322 322 322 323 325 324 325 326 326
360 359 358 357 356 354 354 352 349 350 349 349 348 348 347 347 348 346 346 347 345 345 343 343 344 343 344 344 340 344 346 346 343 340 339 341 346 349 348 345 346 347 346 342 335 336 335 334 336 324 324 327 327 327 327 325 323 322 319 317 316 317 317 317 319 320 320 321 321 320 319 319 322 324
360 359 358 357 357 356 356 355 353 352 350 350 349 349 349 347 347 346 345 346 345 344 343 341 341 342 341 343 344 344 348 344 343 344 340 337 340 342 348 348 347 347 346 344 342 336 334 333 330 322 325 328 329 327 327 327 327 325 321 320 321 322 319 318 319 319 318 317 316 316 316 316 318 320
360 360 359 358 357 358 350 345 346 347 348 352 349 350 350 348 346 346 345 345 344 343 343 342 343 341 340 341 341 340 341 340 339 342 343 340 341 345 344 347 350 349 346 345 342 341 342 340 338 338 338 338 336 334 329 332 332 327 322 321 323 323 322 319 319 319 318 317 317 315 315 316 317 320
360 359 359 358 348 342 339 339 341 341 342 344 348 351 350 347 346 346 344 344 343 343 341 340 340 338 338 339 341 340 342 344 345 341 343 341 342 342 343 344 346 349 346 340 338 341 343 340 339 338 336 335 335 335 337 332 332 329 324 323 323 322 322 320 319 318 317 317 316 315 314 314 316 317
359 359 359 360 353 345 339 346 338 339 338 340 339 340 342 343 348 346 344 344 345 343 342 342 341 339 339 340 341 341 340 340 340 340 343 343 343 340 339 337 343 345 344 340 337 337 341 340 337 338 335 333 333 332 333 328 329 325 324 323 323 322 322 322 321 320 317 316 315 315 314 314 315 315
360 359 358 358 359 356 354 354 352 344 337 334 335 334 336 336 337 339 347 346 344 345 343 341 341 340 339 341 341 338 337 339 341 343 344 343 341 341 339 338 337 344 343 337 335 335 339 339 335 333 333 333 331 328 328 325 326 324 323 323 322 322 322 321 321 320 319 318 318 318 318 317 317 317
361 360 358 358 358 359 343 348 354 353 348 333 330 331 331 333 332 331 332 336 349 348 345 343 342 341 341 341 342 341 341 343 344 346 339 342 344 342 339 340 339 342 343 339 333 331 337 335 332 330 334 333 332 330 327 326 326 324 323 322 322 321 320 318 318 318 317 317 316 316 315 314 314 314
361 361 359 357 357 358 357 355 353 353 352 348 344 343 344 344 341 331 328 328 330 342 345 345 343 344 346 342 345 346 346 346 342 339 339 344 343 343 342 343 341 342 341 336 334 331 332 334 331 330 332 331 331 333 329 323 323 322 321 320 318 317 316 316 316 316 316 316 315 314 312 311 311 311
361 361 360 359 358 359 359 357 352 353 353 352 348 345 344 344 344 345 343 343 343 344 343 344 346 346 347 347 348 349 353 347 346 345 346 347 346 346 345 342 341 339 340 338 333 326 330 333 329 329 330 331 331 331 324 321 323 322 319 317 318 316 315 315 315 314 314 314 313 312 311 311 310 309
360 358 358 359 359 360 360 345 333 343 355 353 350 348 346 345 343 342 339 335 337 343 345 345 346 345 346 339 348 348 347 348 349 348 347 347 345 341 336 333 334 334 338 339 333 328 328 333 327 328 330 330 329 330 331 322 320 319 318 318 317 315 313 313 313 313 313 313 313 312 310 308 307 306
358 358 358 358 359 359 360 341 327 331 339 353 350 349 348 346 344 343 345 334 329 330 328 328 331 332 330 330 329 328 332 343 344 344 340 338 338 335 331 330 330 331 334 337 336 331 327 329 328 326 327 329 327 326 326 328 320 316 317 315 314 313 313 312 311 311 312 312 312 312 312 309 308 308
357 356 344 352 358 359 360 328 324 326 340 351 350 349 347 345 345 345 346 345 344 328 327 329 329 327 326 328 327 327 327 328 338 343 336 339 336 332 331 328 329 330 335 335 335 331 327 328 329 325 327 327 326 325 326 326 325 319 314 312 313 313 313 312 311 312 312 312 312 312 310 308 307 320
354 356 348 339 345 351 349 321 323 323 335 350 350 348 347 344 344 345 346 345 346 345 344 344 345 342 335 344 345 341 324 328 339 344 343 339 335 333 331 330 329 325 329 332 336 327 326 326 326 325 321 319 322 325 324 324 325 325 325 323 325 315 313 313 311 310 310 311 311 311 309 308 309 321
354 354 356 347 327 329 327 318 318 319 324 346 350 349 347 346 345 347 347 349 345 344 342 342 343 344 345 344 345 344 338 336 339 342 341 338 335 333 333 333 329 326 327 332 333 327 325 326 322 326 322 317 315 320 323 323 324 323 322 323 322 317 318 316 314 310 308 309 309 309 309 308 309 322
351 353 352 354 332 322 321 315 314 315 318 328 349 349 348 348 349 344 347 349 345 345 344 342 341 343 344 343 343 342 342 338 338 337 339 338 337 336 334 331 329 329 329 332 330 330 325 324 322 323 321 321 319 317 320 321 321 319 321 321 320 320 322 322 319 322 313 308 307 307 307 309 308 317
352 353 353 355 336 320 319 314 312 312 315 320 346 350 329 328 329 349 348 348 344 344 343 340 340 340 340 340 339 337 337 336 337 337 338 338 339 339 337 333 330 325 327 332 324 330 324 322 322 320 320 317 317 318 315 316 318 319 321 319 318 320 321 320 318 320 321 323 324 321 320 312 311 310
354 354 355 352 331 317 316 311 311 312 313 317 335 324 321 321 324 339 344 345 344 342 340 340 339 339 339 338 336 335 336 337 339 338 339 339 338 339 338 335 332 330 330 330 328 328 326 323 325 320 318 319 316 316 316 314 315 317 316 316 319 319 319 317 317 317 318 320 323 313 311 310 310 312
355 354 353 349 323 312 310 310 311 312 314 327 319 316 318 319 326 344 343 342 342 340 338 338 339 339 338 336 336 337 338 337 339 339 338 339 339 337 335 334 331 332 334 332 331 329 328 325 323 324 322 319 316 314 313 315 315 314 313 316 316 316 316 317 316 317 320 323 323 323 322 322 324 326
357 341 329 325 314 312 309 311 311 312 312 316 315 316 316 326 341 342 342 341 342 339 338 337 338 338 337 338 340 342 341 340 340 340 339 339 338 335 334 333 333 333 330 330 329 329 329 326 324 324 322 319 316 316 314 313 313 313 314 314 311 314 316 317 318 318 319 320 320 321 321 320 320 320
333 326 322 320 314 313 315 321 326 329 326 316 317 317 321 338 340 340 341 341 339 338 337 337 337 337 339 340 342 342 341 338 336 337 336 333 330 331 329 329 330 332 331 330 328 327 327 326 325 323 320 319 317 315 316 313 312 312 313 312 312 315 316 316 317 317 319 319 320 320 321 320 319 319
346 340 331 328 320 321 317 322 322 325 322 320 322 325 330 337 338 339 340 339 340 338 337 336 337 338 340 342 340 337 336 335 336 337 334 330 328 329 329 328 328 327 328 329 327 327 326 325 325 323 319 318 317 317 317 315 311 311 313 313 312 310 313 318 318 318 319 320 320 319 320 319 320 322
348 344 325 320 327 328 324 327 328 330 327 325 327 329 331 335 337 337 336 338 341 341 340 338 338 337 338 337 335 335 334 335 335 335 331 328 327 327 328 326 324 324 325 326 327 326 322 324 324 323 322 320 317 317 317 314 311 311 310 312 313 314 315 314 315 318 320 320 317 317 318 318 319 320
342 338 338 335 332 328 325 326 328 330 328 327 329 331 332 335 337 338 338 338 338 339 338 338 337 334 335 335 334 333 333 333 333 333 331 331 329 329 327 325 323 322 319 320 322 322 324 323 323 322 321 321 319 318 315 311 311 312 311 311 312 312 314 315 316 317 321 318 316 316 315 318 319 319
340 336 334 333 331 328 327 328 329 329 328 328 329 330 327 333 336 337 336 337 337 339 338 337 334 333 334 334 333 332 331 332 330 331 326 330 330 328 325 323 323 322 322 320 320 320 322 323 324 323 324 324 323 322 318 314 312 314 314 313 313 312 314 317 318 320 319 317 315 313 314 316 317 318
337 335 332 330 330 330 331 330 330 329 328 328 329 330 330 333 335 334 335 336 336 337 337 335 333 333 333 332 331 331 329 329 329 331 330 330 329 327 325 322 321 321 321 320 319 320 321 320 320 318 317 316 315 319 323 322 317 316 316 314 314 313 314 316 316 318 318 316 316 314 315 315 315 317
334 334 331 330 330 332 332 332 330 329 329 329 329 330 330 331 333 333 335 336 337 336 334 333 332 332 332 331 330 330 328 327 328 328 327 327 327 326 325 323 321 321 321 320 319 320 319 318 316 313 310 308 308 307 311 322 322 318 313 312 314 314 315 317 318 318 316 315 316 314 312 312 313 315
334 333 331 331 330 331 331 331 330 329 329 329 330 330 331 331 332 334 337 337 337 334 333 333 332 332 330 329 328 327 329 327 327 326 327 326 326 326 322 321 321 322 320 319 320 319 319 316 315 313 308 307 306 305 308 325 316 320 320 312 314 314 315 316 316 316 315 314 313 312 312 312 312 314
333 332 330 330 330 331 331 331 331 331 330 329 330 330 332 334 336 337 340 337 334 332 331 330 330 330 329 328 328 328 328 327 326 326 324 324 323 322 321 321 320 320 317 318 320 318 317 316 314 312 309 305 305 306 307 311 314 314 316 318 313 313 315 316 315 314 313 313 311 311 312 311 311 313
332 330 329 329 329 330 330 330 331 330 331 330 330 330 331 334 335 335 335 333 333 333 333 330 329 328 330 329 328 327 326 325 324 324 323 323 322 322 321 322 320 319 318 317 317 316 316 315 314 312 310 308 308 308 310 309 308 311 312 310 316 315 316 316 314 312 311 311 311 312 313 315 313 314
330 330 330 330 329 330 330 330 330 330 330 331 332 333 333 332 332 333 332 332 334 332 331 329 329 327 330 329 327 328 326 327 325 324 323 323 322 322 321 320 318 317 317 316 314 314 314 314 315 313 313 313 313 313 311 310 311 312 315 320 308 314 318 316 313 311 310 311 313 311 311 312 311 313
329 329 330 331 330 330 329 329 330 330 330 332 332 327 333 333 334 334 334 333 332 331 330 330 330 328 328 328 328 326 325 324 325 324 323 322 321 320 318 316 317 317 314 313 313 314 314 315 319 311 315 315 313 313 311 310 310 312 312 314 307 305 309 314 317 314 312 314 312 309 309 308 308 308
329 329 330 330 329 330 330 330 331 331 331 331 331 332 333 333 332 326 331 329 333 333 329 328 327 327 326 327 327 325 326 324 323 323 322 320 319 319 314 316 316 314 312 312 313 314 315 318 316 316 316 315 314 312 309 309 308 309 312 313 317 310 306 307 310 313 319 315 310 308 308 308 308 306
329 329 329 329 330 331 332 332 332 332 331 332 331 333 334 333 332 330 331 331 332 329 328 327 327 327 328 328 328 327 325 322 323 322 321 320 320 318 314 314 313 313 314 314 314 313 313 315 315 315 314 313 312 311 308 309 310 310 311 311 312 315 316 312 308 307 308 310 310 312 313 309 306 303
328 329 329 329 329 330 332 333 333 333 332 333 333 333 333 332 331 329 329 329 328 327 327 328 328 327 328 329 329 327 325 323 322 323 320 319 320 317 315 314 312 315 314 313 311 311 312 312 314 312 310 310 311 310 309 309 309 309 310 311 315 316 315 315 317 311 310 312 310 308 310 310 311 310
328 329 330 330 331 331 331 332 332 333 333 332 333 333 330 329 327 327 328 328 327 327 327 328 327 328 327 326 325 323 323 317 319 320 319 319 315 315 315 314 313 313 312 313 310 310 310 311 312 312 311 310 311 311 310 309 310 310 312 313 314 313 313 313 311 310 309 310 310 309 309 310 310 309
Wind_Speed
9 8 9 7 6 5 5 5 5 4 3 3 3 4 4 4 4 3 3 4 4 4 6 5 6 4 3 5 6 6 6 3 5 5 5 5 6 9 11 9 9 9 8 8 8 8 7 8 8 9 9 9 9 10 9 10 10 10 10 11 11 10 10 8 8 9 9 10 10 10 11 12 12 12
7 8 8 8 7 7 7 7 7 6 6 6 6 6 5 5 5 4 4 3 3 3 4 5 4 6 5 4 4 4 5 8 4 5 5 5 3 9 8 8 8 8 7 7 7 7 8 7 7 7 7 7 8 8 8 8 9 9 9 10 10 10 10 8 8 9 10 10 11 11 11 12 12 12
8 8 9 8 7 7 8 7 8 7 7 7 7 7 6 6 6 6 5 5 4 3 4 3 2 4 4 4 4 4 5 6 5 5 4 5 8 4 5 8 7 7 7 7 8 8 8 7 7 6 6 6 5 6 7 7 8 8 9 9 10 9 9 8 7 8 9 10 10 10 11 11 12 12
9 10 10 10 8 8 8 8 8 8 8 8 8 7 7 7 7 6 6 6 4 5 5 3 4 4 5 5 5 4 4 6 6 6 5 3 7 5 7 12 11 9 8 9 9 7 5 5 5 5 6 6 6 8 8 9 9 8 8 8 8 8 8 7 8 9 9 9 9 10 11 11 12 12
10 11 11 11 10 9 9 8 8 8 9 9 8 8 8 8 8 7 7 7 7 5 4 4 4 4 5 6 7 6 6 5 5 6 6 6 6 6 5 4 13 11 9 7 5 4 4 5 6 7 6 6 8 9 9 9 9 9 8 7 6 7 7 7 8 8 9 9 9 9 10 10 10 11
10 11 11 11 11 10 11 10 10 9 9 10 9 9 9 9 8 8 8 8 7 7 6 5 5 4 6 6 7 7 7 6 5 6 5 5 5 5 5 6 6 11 8 6 5 5 6 6 7 7 7 7 8 8 9 8 8 8 7 6 6 6 7 7 7 8 9 9 9 9 9 9 9 10
12 12 12 12 11 10 12 11 11 10 10 10 10 10 9 9 9 9 9 8 8 8 6 5 6 6 7 8 7 8 6 6 6 6 6 6 5 4 5 5 2 12 9 9 8 8 8 7 8 8 7 7 7 7 7 7 7 7 6 6 6 6 6 6 7 8 8 9 9 9 9 9 9 10
13 13 12 12 13 12 12 12 11 11 11 10 10 10 10 9 9 9 9 10 7 6 7 6 6 6 6 7 6 6 6 6 6 7 6 6 5 6 5 5 5 9 11 11 9 9 9 8 8 7 6 6 6 6 7 7 7 7 7 7 7 7 7 7 7 7 8 8 9 9 10 10 10 9
13 13 13 13 13 13 13 12 12 11 13 11 10 10 9 9 9 8 9 9 8 7 7 6 6 5 6 6 6 7 7 7 7 7 7 6 6 7 6 5 3 11 11 10 10 10 10 9 9 7 7 8 8 8 8 7 7 8 8 8 8 7 7 7 7 7 7 7 8 9 9 9 10 10
13 13 13 13 14 14 14 13 13 12 13 12 11 11 10 10 9 10 10 9 9 9 8 7 6 7 7 7 7 7 8 7 7 7 7 7 7 6 6 5 4 3 4 5 7 8 9 11 8 10 9 10 9 8 8 8 9 9 8 8 8 8 7 7 7 7 7 7 8 8 9 10 10 10
14 14 14 14 14 15 14 14 14 13 13 12 12 12 11 11 10 10 9 9 10 9 8 8 7 7 8 7 7 7 8 8 7 6 6 7 6 6 6 5 4 4 4 4 4 5 5 4 7 10 10 9 10 9 9 10 11 10 9 8 8 7 7 7 7 7 7 8 8 9 9 10 10 11
14 15 15 15 15 15 15 14 14 13 12 11 12 11 10 10 10 10 9 10 10 9 9 8 8 7 6 7 7 6 7 8 8 7 7 7 6 6 6 5 5 3 4 5 5 6 6 8 5 7 10 11 10 11 10 13 12 11 8 8 7 7 8 7 7 7 7 8 8 8 9 9 10 10
15 15 14 15 15 15 15 16 14 13 11 11 11 11 11 11 11 10 10 10 10 9 9 9 8 7 8 8 8 8 9 9 9 7 8 7 6 6 5 5 5 4 4 3 3 3 3 3 3 4 5 4 11 12 14 11 15 9 8 8 7 7 7 8 7 7 8 8 9 9 9 10 10 9
15 15 14 14 16 15 16 16 15 12 12 13 12 11 12 12 11 11 11 10 10 10 10 9 9 9 9 9 9 9 9 8 8 8 7 7 6 6 5 5 4 3 2 2 3 3 3 4 4 4 5 5 6 6 7 2 7 7 7 6 6 7 7 7 7 8 9 9 10 10 10 10 11 11
14 14 15 14 13 13 13 15 16 14 13 15 14 12 13 13 13 12 12 11 11 11 10 9 9 9 10 10 9 9 9 9 9 8 7 7 6 6 6 5 3 2 1 3 3 4 3 4 5 4 5 5 6 6 3 7 1 1 3 4 6 7 7 8 8 9 9 9 10 11 11 11 11 11
13 14 14 13 12 13 16 15 13 15 15 14 15 14 14 14 15 14 12 11 11 11 11 10 10 9 10 9 9 8 8 8 8 7 7 6 6 6 5 5 5 4 5 4 3 4 3 2 3 5 6 5 5 7 2 3 6 7 6 6 6 8 8 8 9 9 10 10 10 10 10 11 11 12
13 13 13 13 12 10 15 14 14 13 14 15 17 17 16 15 15 14 14 11 10 11 12 11 10 10 9 9 9 8 8 6 7 7 7 7 6 5 5 5 4 6 5 3 4 5 3 2 4 6 6 6 6 7 9 8 6 7 6 6 7 8 8 8 9 9 10 10 10 10 11 11 12 12
14 15 13 13 13 12 12 13 14 13 14 14 13 13 13 13 14 14 14 14 13 12 12 12 11 10 10 9 7 7 7 7 8 7 7 6 6 6 5 2 2 4 5 4 3 6 6 6 7 8 6 5 7 8 8 10 9 5 6 7 8 8 8 8 8 9 10 9 9 10 11 12 12 13
15 15 14 14 14 13 12 12 15 14 14 13 13 14 15 15 15 15 17 16 15 14 15 13 12 10 10 10 9 7 7 8 7 6 6 5 4 2 2 2 2 3 5 4 3 8 7 6 8 8 7 7 7 7 6 13 9 8 8 8 8 8 8 8 10 10 10 10 10 11 12 12 13 13
15 17 17 15 14 14 14 14 18 15 13 14 14 14 15 14 14 14 15 16 16 16 14 14 13 11 10 8 9 8 8 6 5 5 4 3 4 4 4 5 4 5 5 7 6 8 8 5 7 8 7 6 7 6 7 10 12 10 9 8 9 9 9 10 11 12 11 12 12 12 12 13 13 13
16 16 17 18 14 15 14 15 20 18 15 13 15 15 14 13 13 13 12 15 17 16 15 12 12 6 6 11 10 9 6 6 6 6 7 7 6 5 5 5 5 6 5 6 7 7 7 5 7 8 6 6 7 8 7 5 10 11 10 11 11 11 11 12 12 12 13 13 13 13 13 13 12 13
15 17 19 18 18 15 13 18 21 20 17 14 15 15 15 15 15 14 13 10 12 17 16 8 6 10 11 11 11 10 10 8 7 9 9 7 7 6 6 5 5 5 4 6 6 7 8 6 6 7 6 7 8 7 5 4 3 9 13 15 14 13 13 13 13 13 13 13 14 13 13 13 11 8
17 16 14 17 18 17 13 20 21 22 19 15 15 16 15 15 16 14 13 12 10 8 9 7 6 6 8 8 8 8 10 10 10 9 8 6 6 6 7 6 5 7 8 8 9 4 5 5 5 5 6 7 6 6 5 5 6 6 7 5 7 14 15 15 15 15 15 15 14 14 14 13 9 7
17 17 15 15 20 18 14 19 22 22 21 17 14 14 16 15 15 13 11 10 10 12 11 13 13 12 10 9 9 8 7 8 11 10 9 7 6 6 6 7 8 8 5 2 10 6 5 4 6 4 6 7 7 5 7 6 5 6 7 7 8 6 12 15 15 19 18 16 16 16 16 14 10 7
17 15 18 15 18 22 18 19 22 23 23 19 15 15 16 16 12 9 11 9 10 10 10 10 11 11 11 11 11 11 9 9 8 8 8 8 9 8 7 8 6 6 6 5 10 3 5 4 6 5 6 6 7 8 6 7 7 7 7 7 8 7 8 8 8 7 10 17 18 17 16 15 14 10
18 18 16 15 16 24 21 20 22 23 23 23 14 15 15 10 7 7 8 6 9 10 9 10 11 11 10 9 10 11 10 10 11 11 10 11 9 8 7 6 6 5 4 9 7 4 4 5 6 6 6 7 8 8 8 7 7 7 6 7 8 8 8 8 8 7 7 7 6 7 7 12 15 16
18 16 16 17 18 24 23 21 21 22 25 21 16 16 13 11 11 8 9 8 8 10 12 11 11 11 11 10 11 11 10 10 11 11 10 10 9 7 6 4 5 5 1 7 4 4 3 5 4 6 6 6 8 8 8 8 6 6 8 8 8 8 8 8 7 7 7 7 8 9 11 14 17 19
18 19 18 15 19 22 23 22 21 21 21 16 21 15 14 13 11 7 8 7 9 11 12 12 12 12 11 11 10 9 9 9 9 9 9 9 9 8 6 6 6 5 4 4 4 4 5 5 6 6 6 6 8 8 9 8 8 8 9 9 9 9 8 7 8 8 7 7 7 8 9 9 8 8
17 18 17 16 19 20 21 23 21 18 20 22 19 17 14 13 9 9 9 10 10 12 12 13 13 11 11 10 9 9 9 8 8 9 8 8 7 6 6 5 6 6 5 5 5 5 6 6 6 6 6 6 8 8 8 9 9 9 9 9 10 8 8 8 8 7 6 7 8 9 9 9 10 10
14 13 16 18 21 21 19 15 11 10 12 17 18 18 14 10 10 10 11 11 13 13 13 12 12 12 11 9 8 8 9 9 10 9 9 8 7 7 7 6 6 6 7 7 7 7 7 7 7 6 7 7 7 8 8 9 9 9 9 10 10 10 9 7 7 8 8 8 8 9 9 10 11 11
9 9 9 10 14 13 20 19 16 14 14 12 10 9 10 10 11 13 12 14 14 13 13 10 10 11 11 9 10 9 10 10 9 9 8 8 8 8 7 7 7 7 7 8 7 7 7 6 6 6 7 7 8 8 8 8 10 10 10 10 9 9 8 8 8 8 7 8 9 10 10 11 11 11
7 6 7 12 11 12 12 11 9 9 9 9 10 10 10 10 11 12 13 13 11 11 12 11 10 11 12 11 10 10 10 10 10 9 9 8 8 8 8 7 7 7 8 7 6 7 6 6 6 6 7 7 8 8 8 8 10 10 10 10 10 9 9 8 8 8 8 8 10 11 11 12 12 11
11 11 11 10 12 13 14 12 12 12 10 9 11 11 11 11 11 10 12 14 14 13 12 10 10 12 12 10 10 10 10 11 10 9 9 8 8 8 8 8 7 8 9 6 10 9 8 7 7 7 7 8 9 9 8 9 9 9 9 9 9 9 8 8 8 8 8 9 10 11 12 12 12 11
15 14 14 15 15 16 14 13 13 13 11 12 13 12 12 11 11 11 13 13 15 12 10 11 14 14 12 11 11 10 11 10 10 10 10 9 8 8 8 8 9 8 8 8 8 6 5 6 5 7 9 10 10 10 10 10 10 9 8 8 8 9 8 8 8 9 9 9 11 13 12 12 11 11
16 11 11 13 15 15 14 14 15 13 12 10 10 9 8 8 9 10 12 12 13 10 10 10 11 13 11 11 10 11 11 11 10 10 9 9 9 9 9 9 8 8 8 8 7 6 5 5 6 7 8 8 9 10 15 14 9 8 7 8 7 8 8 8 8 8 9 10 10 12 13 12 13 12
17 15 14 14 13 14 15 14 13 13 12 11 12 12 12 12 11 9 10 11 13 13 12 12 12 11 10 11 11 11 11 11 10 11 10 10 9 9 9 9 8 8 8 7 5 6 5 5 5 6 7 7 8 8 5 18 15 7 7 7 7 8 8 8 8 9 10 10 10 11 13 13 13 12
18 15 14 14 14 15 15 14 14 14 14 13 11 9 8 9 10 10 8 9 11 14 15 13 13 11 10 10 11 11 11 11 10 11 10 9 9 9 9 9 9 9 8 7 6 5 5 5 5 6 6 7 8 8 7 6 17 16 6 7 8 8 8 8 8 9 9 10 11 11 12 13 14 13
16 17 16 14 14 13 13 14 14 13 12 12 13 13 11 9 8 10 8 10 12 11 9 11 13 12 11 11 11 12 12 11 10 10 10 10 10 10 10 9 9 8 8 7 6 5 5 5 5 5 6 7 7 7 7 6 4 8 15 10 9 9 8 8 9 9 10 10 11 11 12 13 14 13
17 16 15 13 12 12 13 13 13 13 12 11 11 11 11 10 9 9 9 10 11 8 9 12 12 11 10 12 11 12 11 11 10 10 10 9 9 8 9 9 9 8 7 7 6 6 5 6 6 5 6 6 7 6 7 8 9 9 7 17 11 10 8 8 9 10 11 12 11 11 11 12 14 17
17 18 17 16 15 14 14 13 12 11 11 11 10 9 10 11 11 10 11 10 9 11 12 12 11 10 10 11 12 11 11 11 10 9 10 9 9 9 9 9 9 7 7 7 6 6 6 5 6 6 5 4 5 7 8 9 10 11 12 12 21 13 8 8 9 11 12 11 11 12 13 12 13 12
11 14 14 14 14 14 15 14 13 13 13 12 11 10 9 8 9 11 10 9 11 13 14 12 12 12 12 11 12 11 10 9 8 10 10 9 8 9 8 9 7 6 7 7 7 6 5 3 7 8 1 5 7 7 8 9 9 8 8 7 7 17 16 10 7 9 11 11 11 12 13 13 13 13
14 12 12 13 14 14 15 14 14 13 12 12 11 11 10 10 9 10 10 13 14 13 13 12 11 10 11 11 10 9 9 10 10 10 11 9 8 7 4 6 8 7 8 7 6 5 3 4 3 4 5 7 6 7 8 8 9 9 8 8 8 10 16 14 13 12 10 9 11 12 11 13 13 15
11 11 11 9 9 9 9 11 12 12 12 12 12 12 11 12 10 11 10 10 11 13 11 9 9 10 9 9 9 9 10 11 10 10 8 8 8 8 9 9 9 9 8 6 4 3 3 4 5 5 6 5 6 7 8 8 9 9 9 9 8 8 6 11 16 15 14 15 15 13 10 11 13 15
12 11 9 9 9 8 8 9 10 10 12 12 11 11 11 10 11 11 10 9 11 10 10 9 9 9 9 9 9 8 8 7 8 7 9 8 8 8 8 8 8 7 6 6 5 5 5 4 4 4 5 5 5 6 7 8 9 9 9 9 9 9 9 9 8 8 10 12 15 17 18 17 15 15
8 10 10 9 9 9 8 8 9 9 10 10 10 10 9 9 9 9 9 9 8 8 8 8 9 8 8 8 8 9 8 8 8 8 7 7 7 7 7 7 8 8 7 6 5 5 5 4 4 4 5 5 5 6 7 8 9 9 10 10 10 9 8 8 10 10 10 10 4 8 13 12 12 13
Wind_Direction
204 207 204 207 214 222 213 225 226 220 223 219 217 231 225 215 255 252 235 212 252 200 212 236 169 206 209 228 232 218 232 192 143 239 245 247 263 180 197 209 216 224 226 237 241 249 254 257 263 268 272 272 272 274 275 275 275 277 279 279 280 279 277 273 270 269 270 269 266 266 265 269 274 277
206 205 199 201 210 206 208 212 218 203 205 210 210 212 217 218 224 225 249 255 221 231 198 245 180 169 185 222 222 245 242 114 218 232 246 254 256 133 186 199 213 219 226 232 244 249 253 260 263 265 266 264 263 265 268 271 272 277 277 278 276 278 278 277 271 270 270 267 267 265 265 268 271 274
201 201 202 198 208 205 210 214 209 204 202 209 210 213 209 206 213 222 216 235 206 234 261 216 281 151 187 223 213 207 232 161 195 232 231 244 104 163 191 202 209 221 219 230 236 238 240 241 242 249 262 278 273 285 284 285 282 279 280 280 281 283 284 282 278 276 271 268 267 266 269 270 269 269
197 198 202 200 205 205 209 212 212 202 204 208 209 210 208 210 214 211 221 223 223 181 224 222 198 220 194 211 226 228 237 131 168 239 234 180 128 224 234 187 200 198 214 216 222 226 244 268 284 294 298 294 293 293 290 290 290 288 286 287 290 290 287 283 278 273 272 271 271 271 272 271 271 273
196 199 202 201 202 204 208 210 210 207 202 207 210 207 206 210 206 211 212 220 223 220 212 236 252 192 194 200 211 220 224 220 200 218 234 229 236 239 255 215 175 185 194 213 229 248 266 275 278 278 275 275 280 281 281 284 286 290 292 293 292 283 278 277 276 280 283 281 277 275 275 277 278 276
204 199 203 203 201 202 209 211 211 209 206 203 207 204 206 206 206 205 213 218 226 227 187 208 218 209 192 230 202 214 222 225 215 218 221 220 227 241 239 260 176 171 180 194 215 240 246 247 253 254 254 256 262 265 269 273 278 279 281 282 275 266 269 275 279 284 282 282 282 282 280 277 277 278
207 202 203 205 202 201 207 211 213 211 210 207 207 207 205 208 207 201 210 217 219 222 224 199 197 201 201 219 205 207 216 218 215 220 224 225 217 222 253 261 277 161 178 188 198 216 220 227 232 237 241 246 246 257 266 274 276 274 273 265 259 257 264 266 265 267 267 270 273 272 271 268 266 264
207 206 204 208 205 203 207 209 212 213 211 209 207 208 208 208 210 205 201 214 223 223 225 196 216 197 202 207 224 211 210 216 211 223 225 230 236 240 229 230 265 166 176 182 200 210 214 221 228 237 255 263 263 262 263 263 262 263 258 254 254 258 260 263 267 267 272 276 276 278 278 275 271 270
205 206 208 207 207 205 207 209 213 212 210 208 206 207 206 209 210 209 205 207 213 219 220 215 201 214 210 213 212 211 211 211 218 217 232 232 235 232 242 257 221 140 178 184 205 208 211 220 224 235 238 244 246 248 256 260 261 260 261 262 262 266 266 268 270 277 282 282 278 279 277 275 277 279
206 208 210 209 207 206 208 211 212 213 210 206 206 205 206 208 209 209 207 206 207 213 220 221 209 207 213 205 211 205 214 220 215 217 221 228 233 237 243 247 258 234 195 216 198 207 220 213 221 221 221 231 240 251 251 254 257 255 253 253 259 261 266 267 267 267 267 267 272 275 280 280 280 280
206 208 210 211 210 209 209 213 213 210 209 207 208 205 206 208 209 208 209 206 208 210 216 216 223 217 211 219 214 206 214 222 231 230 220 231 225 221 227 238 248 249 226 192 192 261 340 102 207 194 215 220 237 244 245 250 251 253 248 257 259 262 263 263 266 270 273 275 276 279 281 283 283 282
210 209 212 214 212 210 210 213 215 211 207 205 207 204 203 207 211 213 211 211 211 213 215 221 215 215 215 205 225 208 201 216 219 224 229 229 219 214 203 221 241 249 263 268 234 183 210 210 219 183 208 218 227 232 237 237 243 238 250 249 252 256 257 261 266 268 269 270 270 272 275 276 279 279
212 212 214 217 217 209 211 209 213 211 203 201 199 199 200 205 209 214 217 215 217 215 218 218 218 222 216 217 211 211 208 213 220 214 219 229 221 221 220 210 209 230 258 248 260 250 258 272 274 266 283 236 206 223 227 243 219 206 223 235 249 260 272 278 283 289 293 293 288 285 283 283 281 271
211 212 214 217 214 205 203 208 206 202 186 196 203 195 196 202 207 211 215 216 216 217 217 218 216 218 222 218 213 217 215 215 221 222 213 224 220 224 234 238 216 187 219 255 236 231 215 237 249 265 269 287 270 288 229 321 75 162 213 235 250 266 273 279 283 285 284 283 284 283 282 281 280 278
211 211 212 220 205 202 204 208 203 195 185 188 201 203 200 203 206 207 211 216 216 217 219 218 218 221 223 222 219 218 227 224 224 225 219 225 220 229 232 232 152 115 152 200 221 243 257 246 257 276 283 279 294 296 305 102 283 194 235 254 266 269 275 275 274 275 272 269 269 273 275 275 274 274
214 210 209 211 214 210 213 215 200 199 197 193 197 201 204 209 215 217 213 211 216 220 223 219 220 224 226 227 222 223 227 224 224 223 225 226 235 230 233 235 241 151 187 198 212 245 225 214 233 250 255 258 264 265 282 226 186 201 210 234 242 249 252 257 262 267 270 271 272 272 274 275 277 278
214 210 206 208 209 210 198 206 211 202 197 196 199 204 209 214 216 223 230 235 235 224 228 229 225 222 229 229 224 225 236 231 213 206 224 224 222 232 241 246 245 166 185 195 224 247 190 171 244 257 247 242 246 259 250 222 179 199 223 231 243 244 245 247 253 257 261 267 272 277 280 280 278 276
215 210 203 205 206 206 198 202 205 204 199 193 199 208 213 217 217 222 229 233 242 253 242 232 231 224 223 231 227 226 222 201 221 226 233 221 222 220 233 227 199 134 167 197 264 272 266 259 265 264 262 253 258 252 224 169 192 226 248 253 247 249 252 256 262 264 267 270 271 271 271 273 274 272
222 215 208 206 207 203 203 195 192 197 197 194 198 205 211 217 220 219 219 221 224 224 232 240 234 228 224 226 227 218 193 215 227 231 240 227 224 197 149 221 219 192 178 185 231 264 274 265 276 276 272 257 257 270 181 175 190 207 237 247 254 253 263 269 271 275 275 270 266 264 265 266 265 265
226 228 224 215 208 207 206 182 177 189 195 199 206 205 210 215 219 222 217 214 216 223 224 228 231 223 223 211 224 217 215 209 206 199 188 167 163 192 217 234 215 229 192 177 213 256 268 278 276 277 273 271 273 270 287 172 187 201 220 236 242 252 262 267 271 275 277 273 269 266 264 263 265 267
224 222 222 224 215 206 208 170 174 181 191 203 214 217 214 214 217 221 216 197 203 214 231 232 232 229 130 128 128 130 159 206 211 219 222 223 198 192 213 221 223 237 197 187 211 250 269 267 265 264 267 284 287 287 279 277 173 197 216 228 235 246 251 255 263 267 271 270 267 267 264 262 262 266
223 222 217 222 224 212 203 162 175 178 186 202 214 218 222 222 226 228 226 212 193 200 205 195 157 141 141 134 139 148 147 144 180 218 235 218 186 194 201 211 224 248 207 190 196 248 263 269 261 274 285 280 272 268 282 285 261 194 207 220 231 235 238 245 253 259 265 270 273 271 268 268 270 268
226 227 212 207 221 224 198 162 175 177 184 201 207 218 224 225 226 226 220 222 184 182 192 183 166 145 142 152 170 161 161 161 191 216 228 190 183 196 207 219 219 242 238 233 168 222 252 248 254 267 279 278 287 295 293 290 282 283 296 276 232 221 232 238 241 247 250 259 265 266 265 265 259 273
225 225 222 199 204 213 190 170 175 178 183 197 202 213 221 224 221 221 217 218 192 191 206 216 211 211 190 187 185 169 168 187 200 209 210 197 190 195 219 228 245 264 280 102 153 207 257 272 276 269 287 296 295 304 297 290 293 305 303 285 287 241 208 219 230 233 244 249 248 255 261 263 254 272
224 219 222 226 189 199 189 174 177 178 185 194 202 206 219 221 221 205 214 209 184 181 182 209 209 207 202 200 205 205 190 198 195 201 204 203 204 218 220 240 237 245 251 152 163 230 240 277 282 291 284 282 286 289 297 299 294 296 292 284 285 287 295 286 295 279 224 221 230 237 242 245 246 240
225 219 214 223 188 187 189 180 177 179 184 193 202 207 206 204 149 175 212 174 173 187 194 206 204 202 195 197 201 206 201 203 206 204 205 209 213 208 224 239 241 245 244 131 187 180 222 251 271 282 289 288 288 293 297 297 296 283 287 296 292 289 285 289 287 284 290 297 277 219 229 230 238 238
219 215 211 210 185 182 185 181 179 180 185 187 201 195 183 170 156 170 200 188 183 198 207 207 204 199 191 195 201 202 197 201 197 200 204 196 203 213 218 228 235 233 207 121 205 161 206 253 270 276 284 292 293 293 285 289 298 308 294 290 294 292 288 292 290 293 294 293 284 273 258 242 238 242
215 219 214 206 175 178 179 179 181 183 182 189 193 185 172 157 161 177 190 174 185 198 203 200 198 196 196 199 195 189 188 187 177 188 191 201 204 205 201 202 220 222 221 206 195 201 221 245 252 256 264 275 284 289 295 295 292 295 295 293 293 296 297 294 291 292 289 280 287 289 299 300 289 267
214 217 207 184 163 171 176 180 178 181 187 189 183 183 160 159 175 182 193 193 188 197 202 199 198 195 196 193 192 180 175 175 177 191 198 196 199 186 191 195 202 202 210 220 224 226 226 233 253 263 269 272 276 282 286 292 296 292 293 301 293 294 300 293 284 287 295 298 293 292 296 298 292 287
222 191 192 180 165 165 169 170 172 177 183 186 182 177 166 178 185 189 196 199 198 201 201 195 193 195 191 185 176 160 166 183 195 191 193 187 181 184 185 186 199 209 216 218 225 228 225 227 238 254 265 268 271 281 284 288 287 290 292 286 289 291 277 283 299 300 293 293 294 297 295 294 289 288
222 198 179 164 165 154 163 169 174 175 170 172 173 172 183 189 191 196 200 199 199 198 195 190 192 195 186 168 154 170 184 196 194 190 185 184 180 184 186 195 206 210 217 222 232 229 231 232 239 245 252 264 275 276 285 285 282 282 281 283 285 284 291 290 285 289 300 299 303 297 294 290 288 282
219 184 156 153 150 148 156 163 159 169 160 166 170 174 184 189 193 194 198 206 203 196 193 190 189 191 182 168 168 173 190 194 192 187 185 187 182 185 184 197 214 229 244 220 199 207 227 251 248 239 243 260 270 276 276 274 273 275 279 279 276 276 285 293 297 299 303 310 301 296 292 290 290 291
189 175 174 170 163 158 162 163 168 169 162 168 177 178 182 190 195 195 192 198 197 192 188 182 183 186 180 171 168 177 187 195 191 183 181 184 188 185 194 205 214 233 248 216 184 197 192 211 230 246 263 266 262 263 265 269 267 270 271 272 276 281 292 294 302 304 313 304 295 295 295 292 290 284
195 189 184 174 171 167 168 171 170 171 168 169 171 178 180 183 193 189 194 199 196 186 185 184 188 186 179 169 175 186 195 186 183 178 181 180 185 188 195 211 230 246 252 260 262 264 238 227 240 250 252 249 249 245 243 250 262 270 266 270 279 289 290 297 298 304 303 301 301 295 293 293 289 286
197 183 182 176 169 171 173 173 171 166 162 159 152 156 167 183 190 191 193 196 192 181 186 189 189 185 180 170 174 185 188 179 184 183 183 182 184 194 206 225 232 236 241 240 240 240 232 232 236 252 253 255 253 243 215 220 247 254 265 270 287 291 297 298 304 305 305 297 293 293 294 291 290 293
198 188 185 178 175 176 174 172 158 154 151 152 160 160 169 182 186 185 194 190 191 187 190 186 192 187 178 173 179 187 186 179 181 189 183 188 187 197 213 231 239 241 243 248 241 233 230 238 252 272 278 281 286 288 278 189 209 242 267 283 286 294 296 301 302 304 302 300 299 297 294 294 295 297
188 178 184 192 181 173 172 165 160 158 159 157 151 146 161 171 171 186 190 187 201 196 193 190 190 189 177 176 176 187 184 179 182 185 189 190 193 204 220 230 233 241 249 247 236 237 222 237 240 255 267 275 286 287 301 153 209 232 286 290 294 294 300 303 299 294 302 307 304 297 295 297 294 297
189 176 176 183 176 172 163 154 152 153 153 154 156 153 157 167 160 181 184 194 202 200 198 200 188 186 178 177 181 185 190 182 184 181 197 197 204 215 224 231 232 230 234 236 225 216 219 234 243 251 256 269 281 281 291 297 299 230 219 240 282 292 294 296 296 306 308 308 304 301 298 294 294 298
174 165 161 164 166 156 155 152 153 151 151 151 147 152 151 155 162 170 177 189 203 199 198 204 193 184 178 179 185 185 185 180 188 189 195 199 202 210 219 227 234 233 225 217 214 219 216 225 232 241 251 263 270 292 307 305 283 301 248 202 245 277 283 292 302 303 309 310 308 306 296 291 288 281
168 154 155 160 160 156 150 148 143 139 141 148 153 158 154 158 159 159 174 180 197 203 197 197 188 177 183 181 185 185 185 182 187 188 204 201 190 205 219 227 231 229 210 218 221 225 222 224 223 234 247 266 300 301 300 284 285 277 273 237 209 228 263 293 294 307 307 305 307 306 304 306 305 312
149 152 157 157 150 150 148 148 147 145 149 149 145 145 148 152 158 162 167 175 200 196 195 191 186 179 183 180 182 187 178 181 189 205 211 208 208 213 220 225 224 211 220 222 224 226 227 221 81 77 334 279 272 271 260 263 265 277 281 304 186 207 226 225 269 298 297 301 303 304 305 307 311 311
134 137 147 148 151 151 150 150 145 143 141 144 146 151 149 156 165 159 176 190 197 195 191 186 177 176 180 181 179 185 177 190 200 205 217 215 202 189 155 194 215 219 218 220 213 213 160 117 151 207 235 235 244 249 265 276 288 292 301 295 292 199 202 223 229 228 252 288 301 300 300 308 311 312
125 128 132 128 128 132 134 138 140 142 142 145 149 153 153 158 158 167 185 184 190 191 183 170 172 180 175 174 179 181 201 201 202 206 207 198 205 182 189 209 225 221 212 213 203 190 199 195 206 222 231 250 249 258 271 280 286 288 286 289 299 317 287 219 213 225 238 244 244 250 274 296 309 308
115 113 103 101 97 106 127 137 138 139 140 143 145 147 148 149 150 167 172 171 183 180 174 171 171 177 171 171 172 175 189 181 183 187 190 190 194 188 195 199 206 209 208 203 195 195 188 202 211 227 249 251 259 268 278 284 285 291 302 299 298 293 290 312 314 276 255 236 232 236 244 248 257 268
92 108 115 117 122 128 131 135 132 137 139 138 139 134 132 140 149 153 159 168 169 168 166 167 167 164 162 163 165 172 176 168 178 178 186 183 188 191 201 202 191 207 213 201 198 188 195 200 213 225 244 249 254 264 274 276 280 288 283 285 292 299 307 320 314 310 310 314 288 205 225 230 242 257